This is the latest recevied weather packets stored in our database for station/object KK6LZB. If no packets are shown the sender has not sent any weather packets the latest 10 day(s).
| Time | Temp. | Humidity | Pressure | Rain* | Wind** | Luminosity | Snow |
|---|---|---|---|---|---|---|---|
| 1777441067 | 12.78° C | 82% | 1019.6 hPa | 0 mm | - | 0 W/m² | - |
| 1777440764 | 12.22° C | 83% | 1019.6 hPa | 0 mm | - | 0 W/m² | - |
| 1777440464 | 12.78° C | 82% | 1019.6 hPa | 0 mm | - | 0 W/m² | - |
| 1777440160 | 12.78° C | 81% | 1019.8 hPa | 0 mm | - | 0 W/m² | - |
| 1777439856 | 12.78° C | 80% | 1019.8 hPa | 0 mm | - | 0 W/m² | - |
| 1777439553 | 12.78° C | 80% | 1019.8 hPa | 0 mm | - | 0 W/m² | - |
| 1777439253 | 12.78° C | 80% | 1019.8 hPa | 0 mm | - | 0 W/m² | - |
| 1777438950 | 12.78° C | 80% | 1020 hPa | 0 mm | - | 0 W/m² | - |
| 1777438647 | 12.78° C | 80% | 1019.8 hPa | 0 mm | - | 0 W/m² | - |
| 1777438343 | 12.78° C | 79% | 1019.8 hPa | 0 mm | - | 0 W/m² | - |
| 1777438039 | 12.78° C | 79% | 1019.8 hPa | 0 mm | - | 0 W/m² | - |
| 1777437736 | 12.78° C | 79% | 1019.7 hPa | 0 mm | - | 0 W/m² | - |
| 1777437432 | 13.33° C | 78% | 1019.9 hPa | 0 mm | - | 0 W/m² | - |
| 1777437129 | 13.33° C | 77% | 1019.7 hPa | 0 mm | - | 0 W/m² | - |
| 1777436825 | 13.33° C | 77% | 1019.6 hPa | 0 mm | - | 0 W/m² | - |
| 1777436521 | 13.33° C | 76% | 1019.5 hPa | 0 mm | - | 0 W/m² | - |
| 1777436218 | 13.89° C | 75% | 1019.8 hPa | 0 mm | - | 0 W/m² | - |
| 1777435915 | 13.89° C | 75% | 1019.5 hPa | 0 mm | - | 0 W/m² | - |
| 1777435611 | 13.89° C | 75% | 1019.3 hPa | 0 mm | - | 0 W/m² | - |
| 1777435307 | 13.89° C | 74% | 1019.5 hPa | 0 mm | - | 0 W/m² | - |
| 1777435005 | 13.89° C | 74% | 1019.4 hPa | 0 mm | - | 0 W/m² | - |
| 1777434702 | 13.89° C | 74% | 1019.4 hPa | 0 mm | - | 0 W/m² | - |
| 1777434401 | 13.89° C | 74% | 1019.4 hPa | 0 mm | - | 0 W/m² | - |
| 1777434100 | 13.89° C | 74% | 1019.5 hPa | 0 mm | - | 0 W/m² | - |
| 1777433797 | 14.44° C | 73% | 1019.2 hPa | 0 mm | - | 0 W/m² | - |
* Rain latest hour (hover to see other rain measurements)
** Current wind speed in m/s (hover to see current wind gust speed)